TimeEDT,TemperatureF,Dew PointF,Humidity,Sea Level PressureIn,VisibilityMPH,Wind Direction,Wind SpeedMPH,Gust SpeedMPH,PrecipitationIn,Events,Conditions,WindDirDegrees,DateUTC
12:15 AM,39.2,33.8,81,30.23,10.0,Calm,Calm,-,N/A,,Clear,0,2013-03-28 04:15:00
12:35 AM,39.2,35.6,87,30.23,10.0,Calm,Calm,-,N/A,,Clear,0,2013-03-28 04:35:00
12:55 AM,37.4,35.6,93,30.22,10.0,Calm,Calm,-,N/A,,Clear,0,2013-03-28 04:55:00
1:15 AM,37.4,33.8,87,30.23,10.0,North,8.1,-,N/A,,Clear,10,2013-03-28 05:15:00
1:35 AM,39.2,32.0,75,30.23,7.0,Calm,Calm,-,N/A,,Clear,0,2013-03-28 05:35:00
1:55 AM,46.4,30.2,53,30.24,7.0,NNE,8.1,-,N/A,,Clear,30,2013-03-28 05:55:00
2:35 AM,44.6,26.6,49,30.24,7.0,NNE,6.9,-,N/A,,Clear,30,2013-03-28 06:35:00
2:55 AM,44.6,26.6,49,30.24,10.0,NNE,6.9,-,N/A,,Clear,20,2013-03-28 06:55:00
3:15 AM,44.6,26.6,49,30.24,10.0,NE,6.9,-,N/A,,Clear,40,2013-03-28 07:15:00
3:35 AM,44.6,26.6,49,30.24,10.0,NNE,9.2,-,N/A,,Clear,30,2013-03-28 07:35:00
3:55 AM,44.6,24.8,46,30.24,10.0,NNE,9.2,17.3,N/A,,Clear,30,2013-03-28 07:55:00
4:15 AM,44.6,24.8,46,30.24,10.0,NNE,8.1,-,N/A,,Clear,30,2013-03-28 08:15:00
4:35 AM,44.6,24.8,46,30.24,7.0,NNE,8.1,-,N/A,,Clear,20,2013-03-28 08:35:00
4:55 AM,42.8,24.8,49,30.25,10.0,NNE,5.8,-,N/A,,Clear,20,2013-03-28 08:55:00
5:15 AM,42.8,24.8,49,30.24,10.0,NNE,6.9,-,N/A,,Clear,20,2013-03-28 09:15:00
5:35 AM,42.8,24.8,49,30.25,10.0,NE,6.9,-,N/A,,Clear,40,2013-03-28 09:35:00
5:55 AM,42.8,24.8,49,30.25,10.0,NNE,6.9,-,N/A,,Clear,30,2013-03-28 09:55:00
6:35 AM,42.8,24.8,49,30.26,10.0,NNE,4.6,-,N/A,,Clear,20,2013-03-28 10:35:00
6:55 AM,42.8,24.8,49,30.26,10.0,NNE,6.9,-,N/A,,Clear,20,2013-03-28 10:55:00
7:15 AM,42.8,24.8,49,30.27,7.0,North,4.6,-,N/A,,Clear,10,2013-03-28 11:15:00
7:35 AM,42.8,24.8,49,30.28,7.0,NNE,8.1,-,N/A,,Clear,20,2013-03-28 11:35:00
7:55 AM,42.8,24.8,49,30.28,7.0,NNE,5.8,-,N/A,,Clear,20,2013-03-28 11:55:00
8:15 AM,42.8,26.6,53,30.29,10.0,NNE,5.8,-,N/A,,Clear,20,2013-03-28 12:15:00
8:35 AM,44.6,24.8,46,30.29,7.0,NNE,6.9,-,N/A,,Clear,20,2013-03-28 12:35:00
8:55 AM,46.4,28.4,50,30.29,7.0,North,8.1,-,N/A,,Clear,360,2013-03-28 12:55:00
9:15 AM,46.4,28.4,50,30.30,7.0,NNE,8.1,-,N/A,,Clear,20,2013-03-28 13:15:00
9:35 AM,46.4,26.6,46,30.31,7.0,North,8.1,-,N/A,,Clear,360,2013-03-28 13:35:00
9:55 AM,46.4,26.6,46,30.31,7.0,NNE,9.2,18.4,N/A,,Clear,20,2013-03-28 13:55:00
10:15 AM,48.2,26.6,43,30.31,10.0,NNE,10.4,18.4,N/A,,Clear,20,2013-03-28 14:15:00
10:35 AM,48.2,26.6,43,30.31,7.0,NNE,10.4,17.3,N/A,,Clear,20,2013-03-28 14:35:00
10:55 AM,48.2,24.8,40,30.31,7.0,North,11.5,-,N/A,,Clear,10,2013-03-28 14:55:00
11:15 AM,50.0,26.6,40,30.31,10.0,NNE,8.1,-,N/A,,Clear,20,2013-03-28 15:15:00
11:35 AM,50.0,26.6,40,30.31,10.0,NNW,9.2,-,N/A,,Clear,340,2013-03-28 15:35:00
11:55 AM,51.8,24.8,35,30.31,10.0,NW,5.8,-,N/A,,Clear,310,2013-03-28 15:55:00
12:15 PM,51.8,24.8,35,30.31,10.0,North,9.2,-,N/A,,Clear,360,2013-03-28 16:15:00
12:35 PM,51.8,24.8,35,30.30,10.0,NNW,4.6,-,N/A,,Clear,340,2013-03-28 16:35:00
12:55 PM,53.6,24.8,33,30.29,10.0,NNE,8.1,17.3,N/A,,Clear,20,2013-03-28 16:55:00
1:15 PM,53.6,23.0,30,30.29,7.0,NNW,6.9,-,N/A,,Clear,330,2013-03-28 17:15:00
1:35 PM,53.6,24.8,33,30.28,7.0,North,10.4,-,N/A,,Clear,360,2013-03-28 17:35:00
1:55 PM,55.4,24.8,31,30.27,7.0,North,6.9,-,N/A,,Clear,350,2013-03-28 17:55:00
2:15 PM,55.4,24.8,31,30.26,7.0,NNW,8.1,-,N/A,,Clear,330,2013-03-28 18:15:00
2:35 PM,55.4,26.6,33,30.26,10.0,North,6.9,-,N/A,,Clear,360,2013-03-28 18:35:00
2:55 PM,55.4,26.6,33,30.25,10.0,North,8.1,-,N/A,,Clear,10,2013-03-28 18:55:00
3:15 PM,57.2,26.6,31,30.24,7.0,North,5.8,-,N/A,,Clear,360,2013-03-28 19:15:00
3:35 PM,57.2,26.6,31,30.24,10.0,North,8.1,-,N/A,,Clear,10,2013-03-28 19:35:00
3:55 PM,59.0,24.8,27,30.22,10.0,Calm,Calm,-,N/A,,Clear,0,2013-03-28 19:55:00
4:15 PM,59.0,24.8,27,30.21,10.0,North,8.1,-,N/A,,Clear,360,2013-03-28 20:15:00
4:35 PM,59.0,24.8,27,30.21,7.0,NNW,9.2,-,N/A,,Clear,330,2013-03-28 20:35:00
4:55 PM,60.8,26.6,27,30.20,7.0,North,9.2,-,N/A,,Clear,360,2013-03-28 20:55:00
5:15 PM,59.0,24.8,27,30.20,10.0,North,9.2,-,N/A,,Clear,350,2013-03-28 21:15:00
5:35 PM,59.0,26.6,29,30.20,7.0,North,8.1,-,N/A,,Clear,360,2013-03-28 21:35:00
5:55 PM,59.0,26.6,29,30.19,7.0,North,5.8,-,N/A,,Clear,350,2013-03-28 21:55:00
6:15 PM,59.0,24.8,27,30.20,10.0,NNW,6.9,-,N/A,,Clear,340,2013-03-28 22:15:00
6:35 PM,59.0,26.6,29,30.20,10.0,NNW,6.9,-,N/A,,Clear,340,2013-03-28 22:35:00
6:55 PM,59.0,26.6,29,30.20,10.0,NNW,4.6,-,N/A,,Clear,340,2013-03-28 22:55:00
7:15 PM,59.0,26.6,29,30.21,10.0,NNW,5.8,-,N/A,,Clear,340,2013-03-28 23:15:00
7:35 PM,57.2,26.6,31,30.21,10.0,North,3.5,-,N/A,,Clear,350,2013-03-28 23:35:00
7:55 PM,55.4,28.4,36,30.22,10.0,Calm,Calm,-,N/A,,Clear,0,2013-03-28 23:55:00
8:15 PM,53.6,30.2,41,30.23,10.0,Calm,Calm,-,N/A,,Clear,0,2013-03-29 00:15:00
8:35 PM,51.8,33.8,50,30.24,10.0,Calm,Calm,-,N/A,,Clear,0,2013-03-29 00:35:00
9:15 PM,46.4,35.6,66,30.25,10.0,Calm,Calm,-,N/A,,Clear,0,2013-03-29 01:15:00
9:35 PM,46.4,35.6,66,30.25,7.0,Calm,Calm,-,N/A,,Clear,0,2013-03-29 01:35:00
9:55 PM,44.6,35.6,71,30.26,10.0,Calm,Calm,-,N/A,,Clear,0,2013-03-29 01:55:00
10:15 PM,42.8,35.6,76,30.26,10.0,Calm,Calm,-,N/A,,Clear,0,2013-03-29 02:15:00
10:35 PM,42.8,35.6,76,30.27,10.0,Calm,Calm,-,N/A,,Clear,0,2013-03-29 02:35:00
10:55 PM,42.8,33.8,70,30.28,7.0,Calm,Calm,-,N/A,,Clear,0,2013-03-29 02:55:00
11:15 PM,41.0,33.8,76,30.28,10.0,Calm,Calm,-,N/A,,Clear,0,2013-03-29 03:15:00
11:35 PM,41.0,35.6,81,30.29,10.0,Calm,Calm,-,N/A,,Clear,0,2013-03-29 03:35:00